DW9783 Weather Reports


time (UTC)temp
F
wind
direction
speed
knots
gust
knots
rain 1hr
in
rain 24hr
in
rain mn
in
humidity
%
barometer
mb
20260507100004 65 183 4.3 7.8 0.00 0.00 0.00 66 1012.5
20260507095003 65 206 5.2 12.2 0.00 0.00 0.00 66 1012.6
20260507094003 65 177 4.3 13.0 0.00 0.00 0.00 67 1012.7
20260507093106 64 195 5.2 7.8 0.00 0.00 0.00 68 1012.7
20260507092004 64 170 5.2 11.3 0.00 0.00 0.00 70 1012.7
20260507091004 63 178 5.2 10.4 0.00 0.00 0.00 70 1012.9
20260507090107 62 163 3.5 9.6 0.00 0.00 0.00 72 1012.8
20260507085003 62 163 2.6 6.1 0.00 0.00 0.00 72 1012.8
20260507084106 62 184 1.7 8.7 0.00 0.00 0.00 72 1012.7
20260507083003 61 163 0.9 3.5 0.00 0.00 0.00 75 1012.7
20260507082004 61 169 0.9 4.3 0.00 0.00 0.00 76 1012.7
20260507081107 60 172 0.9 3.5 0.00 0.00 0.00 76 1012.7
20260507080004 60 161 0.9 0.9 0.00 0.00 0.00 78 1012.4
20260507075106 59 173 0.9 4.3 0.00 0.00 0.00 77 1012.5
20260507074106 59 219 0.0 1.7 0.00 0.00 0.00 78 1012.5
20260507073003 59 227 0.0 0.0 0.00 0.00 0.00 80 1012.5
20260507072004 59 227 0.0 1.7 0.00 0.00 0.00 81 1012.5
20260507071004 59 255 0.0 1.7 0.00 0.00 0.00 80 1012.4
20260507070106 59 298 0.0 0.9 0.00 0.00 0.00 81 1012.2
20260507065003 59 342 0.0 2.6 0.00 0.00 0.00 82 1012.2
20260507064106 58 283 0.0 0.9 0.00 0.00 0.00 83 1012.1
20260507063004 58 283 0.0 0.9 0.00 0.00 0.00 85 1011.9
20260507062004 57 283 0.0 0.9 0.00 0.00 0.00 87 1011.9
20260507061003 57 289 0.0 0.9 0.00 0.00 0.00 87 1011.9
20260507060106 56 0 0.0 0.0 0.00 0.00 0.00 87 1011.8
20260507055003 56 301 0.0 0.0 0.00 0.00 0.00 87 1011.8
20260507054003 55 301 0.0 0.0 0.00 0.00 0.00 88 1011.7
20260507053107 55 301 0.0 0.0 0.00 0.00 0.00 88 1011.6
20260507052107 55 0 0.0 0.0 0.00 0.00 0.00 87 1011.6
20260507051106 55 301 0.0 0.0 0.00 0.00 0.00 87 1011.5
20260507050003 55 301 0.0 0.0 0.00 0.00 0.00 86 1011.4
20260507045106 55 0 0.0 0.0 0.00 0.00 0.00 86 1011.2
20260507044004 55 301 0.0 0.0 0.00 0.00 0.00 85 1011.2
20260507043107 55 300 0.0 0.9 0.00 0.00 0.00 84 1011.0
20260507042003 55 298 0.0 0.9 0.00 0.00 0.00 83 1011.0
20260507041106 56 318 0.0 0.9 0.00 0.00 0.00 82 1010.9
20260507040106 56 307 0.0 2.6 0.00 0.00 0.00 82 1010.8
20260507035004 56 293 0.0 0.9 0.00 0.00 0.00 81 1010.7
20260507034107 56 339 0.0 0.9 0.00 0.00 0.00 81 1010.7
20260507033106 56 359 0.0 2.6 0.00 0.00 0.00 81 1010.7
20260507032003 56 267 0.0 2.6 0.00 0.00 0.00 80 1010.5
20260507031003 56 350 0.0 1.7 0.00 0.00 0.00 80 1010.6
20260507030003 56 353 0.9 2.6 0.00 0.00 0.00 79 1010.5
20260507025107 57 245 0.9 5.2 0.00 0.00 0.00 79 1010.5
20260507024107 56 231 0.9 7.0 0.00 0.00 0.00 79 1010.4
20260507023106 56 299 0.9 4.3 0.00 0.00 0.00 79 1010.5
20260507022106 56 265 0.9 6.1 0.00 0.00 0.00 79 1010.5
20260507021003 56 244 0.0 3.5 0.00 0.00 0.00 80 1010.6
20260507020004 56 190 0.0 0.9 0.00 0.00 0.00 79 1010.5
20260507015107 56 190 0.0 0.9 0.00 0.00 0.00 80 1010.4
20260507014003 57 190 0.9 1.7 0.00 0.00 0.00 80 1010.3
20260507013107 57 193 0.9 2.6 0.00 0.00 0.00 79 1010.3
20260507012003 57 245 0.9 4.3 0.00 0.00 0.00 79 1010.4
20260507010004 58 214 0.0 4.3 0.00 0.00 0.00 79 1010.4
20260507005107 58 203 0.0 1.7 0.00 0.00 0.00 79 1010.4
20260507004003 58 187 0.9 3.5 0.00 0.00 0.00 78 1010.5
20260507003106 59 219 0.9 2.6 0.00 0.00 0.00 77 1010.5
20260507002004 59 194 0.9 5.2 0.00 0.00 0.00 76 1010.6
20260507001107 59 208 1.7 5.2 0.00 0.00 0.00 76 1010.5
20260507000004 59 202 3.5 7.0 0.00 0.00 0.00 76 1010.6
20260506235003 59 188 3.5 12.2 0.00 0.00 0.00 76 1010.6
20260506234003 59 215 2.6 7.8 0.00 0.00 0.00 76 1010.8
20260506233106 59 202 2.6 8.7 0.00 0.00 0.00 76 1010.7
20260506232004 59 218 1.7 8.7 0.00 0.00 0.00 77 1010.8
20260506231107 59 239 0.0 3.5 0.00 0.00 0.00 79 1010.9
20260506230107 59 279 0.9 1.7 0.00 0.00 0.00 80 1010.8
20260506225106 59 232 0.9 4.3 0.00 0.00 0.00 79 1010.8
20260506224106 59 213 1.7 7.0 0.00 0.00 0.00 78 1010.6
20260506223107 59 191 2.6 7.8 0.00 0.00 0.00 79 1010.4
20260506222107 59 201 2.6 6.1 0.00 0.00 0.00 79 1010.4
20260506221003 60 211 1.7 8.7 0.00 0.00 0.00 79 1010.3
20260506220049 60 225 1.7 7.0 0.00 0.00 0.00 79 1010.4
20260506215106 60 202 2.6 5.2 0.00 0.00 0.00 79 1010.3
20260506214003 60 199 2.6 6.1 0.00 0.00 0.00 77 1010.2
20260506213004 60 223 1.7 7.0 0.00 0.00 0.00 77 1010.2
20260506212004 60 210 1.7 4.3 0.00 0.00 0.00 77 1010.1
20260506211003 60 198 1.7 5.2 0.00 0.00 0.00 77 1010.0
20260506210106 60 207 1.7 5.2 0.00 0.00 0.00 77 1010.0
20260506205003 60 197 1.7 5.2 0.00 0.00 0.00 76 1009.8
20260506204004 61 225 0.9 7.0 0.00 0.00 0.00 76 1009.8
20260506203107 61 210 1.7 3.5 0.00 0.00 0.00 74 1009.8
20260506202003 61 177 2.6 9.6 0.00 0.00 0.00 74 1009.8
20260506201003 61 194 3.5 7.8 0.00 0.00 0.00 74 1009.7
20260506200107 61 193 3.5 12.2 0.00 0.00 0.00 74 1009.6
20260506195107 61 207 2.6 7.8 0.00 0.00 0.00 75 1009.5
20260506194107 60 204 1.7 8.7 0.00 0.00 0.00 75 1009.5
20260506193003 60 213 0.0 5.2 0.00 0.00 0.00 77 1009.3
20260506192106 60 185 0.0 5.2 0.00 0.00 0.00 77 1009.3
20260506191107 60 160 0.0 3.5 0.00 0.00 0.00 77 1009.2
20260506190004 61 173 0.0 0.9 0.00 0.00 0.00 76 1009.0
20260506185003 61 174 2.6 3.5 0.00 0.00 0.00 75 1008.9
20260506184106 62 193 3.5 11.3 0.00 0.00 0.00 75 1008.9
20260506183003 61 198 0.9 7.0 0.00 0.00 0.00 75 1008.8
20260506182107 61 237 0.9 3.5 0.00 0.00 0.00 75 1008.8
20260506181107 62 188 2.6 8.7 0.00 0.00 0.00 75 1008.8
20260506180004 62 203 3.5 7.0 0.00 0.00 0.00 74 1008.7
20260506175003 62 190 3.5 11.3 0.00 0.00 0.00 74 1008.7
20260506174106 62 191 3.5 11.3 0.00 0.00 0.00 74 1008.8
20260506173003 62 208 3.5 7.8 0.00 0.00 0.00 74 1008.6
20260506172004 62 210 2.6 7.8 0.00 0.00 0.00 74 1008.6
20260506171003 62 201 2.6 6.1 0.00 0.00 0.00 73 1008.6
20260506170003 63 208 2.6 7.0 0.00 0.00 0.00 72 1008.7
20260506165106 63 213 2.6 5.2 0.00 0.00 0.00 71 1008.9
20260506164003 64 218 2.6 7.8 0.00 0.00 0.00 70 1008.7
20260506163004 64 206 2.6 8.7 0.00 0.00 0.00 70 1008.8
20260506162107 64 196 1.7 5.2 0.00 0.00 0.00 70 1008.9
20260506161003 64 211 1.7 5.2 0.00 0.00 0.00 69 1009.2
20260506160106 64 184 3.5 7.8 0.00 0.00 0.00 70 1009.2
20260506155004 64 197 3.5 10.4 0.00 0.00 0.00 69 1009.2
20260506154107 63 182 2.6 9.6 0.00 0.00 0.00 69 1009.2
20260506153107 64 174 1.7 8.7 0.00 0.00 0.00 69 1009.3
20260506152106 64 182 1.7 4.3 0.00 0.00 0.00 69 1009.2
20260506151003 64 192 3.5 5.2 0.00 0.00 0.00 69 1009.3
20260506150107 64 174 4.3 9.6 0.00 0.00 0.00 68 1009.4
20260506145107 64 180 5.2 15.6 0.00 0.00 0.00 68 1009.4
20260506144003 64 180 6.1 17.4 0.00 0.00 0.00 67 1009.4
20260506143003 64 177 6.1 14.8 0.00 0.00 0.00 69 1009.4
20260506142003 64 182 5.2 11.3 0.00 0.00 0.00 68 1009.5
20260506141107 64 182 4.3 14.8 0.00 0.00 0.00 68 1009.6
20260506140107 64 184 2.6 11.3 0.00 0.00 0.00 67 1009.7
20260506135107 64 196 2.6 9.6 0.00 0.00 0.00 68 1009.8
20260506134106 64 194 3.5 7.8 0.00 0.00 0.00 69 1009.8
20260506133107 64 210 3.5 8.7 0.00 0.00 0.00 68 1009.8
20260506132004 64 212 3.5 12.2 0.00 0.00 0.00 68 1009.9
20260506131107 64 188 4.3 7.8 0.00 0.00 0.00 68 1010.1
20260506130004 64 207 5.2 11.3 0.00 0.00 0.00 67 1010.1
20260506125106 64 209 6.1 11.3 0.00 0.00 0.00 67 1010.2
20260506124004 64 192 6.1 13.0 0.00 0.00 0.00 67 1010.5
20260506123004 64 196 7.0 15.6 0.00 0.00 0.00 67 1010.1
20260506122003 64 176 7.8 17.4 0.00 0.00 0.00 69 1010.3
20260506121003 64 178 7.0 15.6 0.00 0.00 0.00 66 1010.2
20260506120003 65 185 6.1 14.8 0.00 0.00 0.00 65 1010.4
20260506115004 64 179 7.0 13.9 0.00 0.00 0.00 65 1010.4
20260506114003 64 183 6.1 14.8 0.00 0.00 0.00 66 1010.5
20260506113106 65 192 6.1 11.3 0.00 0.00 0.00 66 1010.5
20260506112106 65 178 6.1 14.8 0.00 0.00 0.00 65 1010.5
20260506111107 66 182 7.8 12.2 0.00 6.53 0.00 65 1010.5
20260506110004 66 169 7.8 14.8 0.00 6.53 0.00 65 1010.7
20260506105003 67 177 7.0 18.2 0.00 6.53 0.00 63 1010.8
20260506104106 65 210 6.1 12.2 0.00 6.53 0.00 67 1010.8
20260506103106 65 188 5.2 9.6 0.00 6.53 0.00 68 1010.8
20260506102004 66 196 5.2 13.9 0.00 6.53 0.00 66 1010.8
20260506101107 67 216 5.2 9.6 0.00 6.53 0.00 68 1010.9
20260506100106 66 185 5.2 19.1 0.00 6.53 0.00 68 1010.9